[[{"header":{"parameterUnit":"m.s-1","parameterCategory":2,"la1":30.2992,"la2":30.254,"lo1":-89.0895,"lo2":-89.0443,"dy":0.0025,"dx":0.0025,"nx":19,"ny":19,"refTime":"2026-03-18T03:00:00:Z","depth":"0","parameterNumber":2,"parameterNumberName":"U-component_of_CURRENTS"},"data":[0,0,0,0.1549,0.1549,0.1553,0.1553,0.1584,0.1584,0,0,0,0,0,0,0,0,0,0,0,0.1537,0.1537,0.1549,0.155,0.1553,0.1553,0.1584,0.1584,0,0,0,0,0,0,0,0,0,0,0,0.1537,0.1537,0.1537,0.155,0.1553,0.1553,0.1584,0.1571,0,0,0,0,0,0,0,0,0,0,0.1563,0.1548,0.1537,0.1537,0.155,0.1553,0.1553,0.157,0.1572,0.1594,0,0.1596,0,0.1603,0.1588,0.1588,0,0,0,0.1535,0.1547,0.1557,0.1537,0.155,0.1553,0.1547,0.1571,0.1573,0.1597,0.1596,0.1598,0.1604,0.1589,0.1589,0.1666,0.1667,0,0,0.1535,0.1529,0.1556,0.1559,0.1554,0.1548,0.1548,0.1571,0.157,0.1596,0.1598,0.1604,0.1589,0.1589,0.1666,0.1666,0,0,0,0.1544,0.1529,0.1537,0.1557,0.1563,0.1548,0.1548,0.1569,0.1574,0.1599,0.1605,0.1589,0.159,0.1665,0.1666,0.1661,0,0,0,0.1543,0.1536,0.1537,0.1533,0.1562,0.1562,0.1545,0.1572,0.1575,0.1605,0.1589,0.1591,0.1665,0.1666,0.166,0.164,0,0,0,0.1536,0.1535,0.1538,0.1532,0.1543,0.1562,0.1567,0.1572,0.158,0.1588,0.1591,0.1665,0.1666,0.1659,0.164,0.1647,0,0,0,0.1526,0.1524,0.1537,0.154,0.1543,0.1564,0.1567,0.1574,0.1579,0.159,0.1665,0.1666,0.1659,0.1639,0.1647,0.16,0.1598,0,0,0.1518,0.1523,0.1526,0.1539,0.1559,0.1562,0.1586,0.159,0.1605,0.1656,0.1657,0.166,0.164,0.1647,0.1656,0.1651,0,0,0,0.1521,0.1523,0.1531,0.1546,0.1567,0.1582,0.1598,0.1615,0.1645,0.1617,0.1682,0.1669,0.1673,0.1646,0.1643,0.1564,0.167,0.167,0.167,0.1512,0.1525,0.1531,0.1552,0.1568,0.1602,0.1613,0.1645,0.1664,0.1682,0.1681,0.1703,0.1675,0.1672,0.1593,0.171,0.171,0.171,0.171,0.1506,0.1509,0.1528,0.1536,0.1567,0.1591,0.164,0.1654,0.1694,0.1704,0.171,0.1662,0.1668,0.1585,0.171,0.171,0.171,0.171,0.171,0.1502,0.15,0.1506,0.1518,0.1539,0.1576,0.1597,0.1643,0.168,0.1685,0.1666,0.1665,0.1577,0.1697,0.1697,0.1697,0.1697,0.1697,0.1696,0.149,0.1493,0.1478,0.1499,0.1497,0.1524,0.1572,0.1591,0.1625,0.1649,0.1649,0.1574,0.1699,0.1681,0.1696,0.1696,0.1696,0.1696,0.1696,0.1459,0.1466,0.1431,0.1423,0.1423,0.1416,0.149,0.1522,0.1557,0.1566,0.1511,0.1635,0.1629,0.1631,0.1613,0.1608,0.1608,0.1608,0.1608,0.143,0.1438,0.1357,0.132,0.1318,0.135,0.1326,0.1372,0.1413,0.1399,0.1431,0.1413,0.142,0.14,0.1408,0.1385,0.1323,0.1323,0.1322,0.1387,0.1368,0.1287,0.1256,0.1249,0.1253,0.1209,0.1198,0.1248,0.1304,0.1331,0.1343,0.1311,0.1329,0.1297,0.1314,0.1277,0,0]},{"header":{"parameterUnit":"m.s-1","parameterCategory":2,"la1":30.2992,"la2":30.254,"lo1":-89.0895,"lo2":-89.0443,"dy":0.0025,"dx":0.0025,"nx":19,"ny":19,"refTime":"2026-03-18T03:00:00:Z","depth":"0","parameterNumber":3,"parameterNumberName":"V-component_of_CURRENTS"},"data":[0,0,0,-0.0353,-0.0354,-0.0407,-0.0407,-0.0508,-0.0509,0,0,0,0,0,0,0,0,0,0,0,-0.0326,-0.0326,-0.0353,-0.0354,-0.0407,-0.0407,-0.0508,-0.0509,0,0,0,0,0,0,0,0,0,0,0,-0.0326,-0.0326,-0.0326,-0.0354,-0.0407,-0.0407,-0.0508,-0.046,0,0,0,0,0,0,0,0,0,0,-0.0405,-0.0373,-0.0326,-0.0326,-0.0354,-0.0407,-0.0407,-0.0457,-0.0463,-0.0493,0,-0.0493,0,-0.0507,-0.0516,-0.0517,0,0,0,-0.0357,-0.0368,-0.0385,-0.0326,-0.0355,-0.0407,-0.0384,-0.046,-0.0467,-0.0501,-0.0494,-0.0498,-0.0509,-0.0517,-0.0518,-0.0509,-0.0508,0,0,-0.0354,-0.0338,-0.038,-0.0388,-0.0359,-0.0382,-0.0385,-0.0464,-0.0466,-0.0494,-0.05,-0.0511,-0.0518,-0.0519,-0.051,-0.0509,0,0,0,-0.0343,-0.0335,-0.0349,-0.0384,-0.0394,-0.0383,-0.0387,-0.0462,-0.0467,-0.0502,-0.0512,-0.0518,-0.052,-0.0511,-0.051,-0.0415,0,0,0,-0.0342,-0.033,-0.0348,-0.0339,-0.0391,-0.0424,-0.0384,-0.0461,-0.0471,-0.0511,-0.0518,-0.0521,-0.0512,-0.051,-0.042,-0.0372,0,0,0,-0.0325,-0.0328,-0.0331,-0.0338,-0.0361,-0.0423,-0.0433,-0.0464,-0.0478,-0.0517,-0.0521,-0.0513,-0.0511,-0.0424,-0.0379,-0.0328,0,0,0,-0.0312,-0.0285,-0.0331,-0.0307,-0.0361,-0.0356,-0.0432,-0.0441,-0.0464,-0.0519,-0.0512,-0.051,-0.0426,-0.0384,-0.0333,-0.0291,-0.0267,0,0,-0.0265,-0.0279,-0.0265,-0.0306,-0.0284,-0.0349,-0.0317,-0.0385,-0.0442,-0.0492,-0.0492,-0.0418,-0.038,-0.0329,-0.0166,-0.0146,0,0,0,-0.0241,-0.023,-0.0231,-0.0235,-0.0253,-0.0247,-0.0312,-0.0338,-0.0368,-0.0447,-0.0401,-0.0379,-0.0351,-0.0334,-0.0317,-0.0365,-0.05,-0.05,-0.05,-0.0173,-0.0182,-0.0149,-0.0156,-0.0154,-0.018,-0.0175,-0.0219,-0.0298,-0.0283,-0.0289,-0.0167,-0.0146,-0.0134,-0.0183,-0.0278,-0.0278,-0.0278,-0.0277,-0.0103,-0.0081,-0.0089,-0.0057,-0.0059,-0.0041,-0.0062,-0.0096,-0.0101,-0.0181,-0.0158,-0.0218,-0.011,-0.0169,-0.0271,-0.0272,-0.0273,-0.0274,-0.0274,-0.0068,-0.005,-0.0035,0.0012,0.0054,0.0048,0.0097,0.0057,-0.0005,0.0022,0.0007,0.0005,-0.0061,0.0019,0.0019,0.002,0.002,0.0021,0.0021,-0.0033,-0.0011,0.0041,0.0085,0.0128,0.018,0.0187,0.0196,0.0175,0.0127,0.0126,-0.0008,-0.0077,-0.0104,0.0028,0.0027,0.0026,0.0025,0.0025,0.0026,0.0031,0.0116,0.0166,0.0268,0.0352,0.0348,0.0373,0.0357,0.0365,0.0191,0.0178,0.0148,0.0134,0.0112,0.0293,0.0292,0.0293,0.0293,0.0068,0.0072,0.0195,0.0284,0.0383,0.0439,0.0536,0.0526,0.0412,0.0339,0.0274,0.0209,0.0201,0.0168,0.0154,0.0129,0.031,0.031,0.031,0.012,0.0152,0.0243,0.0321,0.0435,0.0533,0.0625,0.0629,0.044,0.0302,0.0204,0.0204,0.0094,0.0084,0.0015,-0.0002,-0.005,0,0]}],[{"header":{"parameterUnit":"m.s-1","parameterCategory":2,"la1":30.2992,"la2":30.254,"lo1":-89.0895,"lo2":-89.0443,"dy":0.0025,"dx":0.0025,"nx":19,"ny":19,"refTime":"2026-03-18T03:00:00:Z","depth":"2","parameterNumber":2,"parameterNumberName":"U-component_of_CURRENTS"},"data":[0,0,0,0.1381,0.1382,0.1411,0.1411,0.1466,0.1466,0,0,0,0,0,0,0,0,0,0,0,0.1379,0.138,0.1381,0.1382,0.1411,0.1411,0.1465,0.1466,0,0,0,0,0,0,0,0,0,0,0,0.1379,0.138,0.1381,0.1382,0.1411,0.1411,0.1465,0.1435,0,0,0,0,0,0,0,0,0,0,0.1403,0.1378,0.1379,0.1381,0.1382,0.1411,0.1411,0.1434,0.1437,0.1462,0,0.1485,0,0.1482,0.1472,0.1472,0,0,0,0.1367,0.1375,0.1412,0.1381,0.1383,0.1411,0.1394,0.1435,0.144,0.1467,0.1486,0.1488,0.1483,0.1472,0.1473,0.1557,0.1557,0,0,0.1366,0.1352,0.1409,0.1416,0.1417,0.1393,0.1395,0.1438,0.1437,0.1486,0.1489,0.1483,0.1473,0.1473,0.1557,0.1557,0,0,0,0.1371,0.1351,0.1385,0.1414,0.142,0.1394,0.1396,0.1434,0.1455,0.1489,0.1484,0.1473,0.1474,0.1556,0.1557,0.1541,0,0,0,0.1369,0.1356,0.1385,0.1372,0.142,0.1418,0.1392,0.1452,0.1456,0.1484,0.1473,0.1475,0.1556,0.1557,0.154,0.1534,0,0,0,0.1373,0.1354,0.1373,0.1373,0.1394,0.1418,0.1438,0.1452,0.1454,0.1472,0.1475,0.1556,0.1557,0.154,0.1534,0.1532,0,0,0,0.1337,0.1354,0.1373,0.1385,0.1394,0.1425,0.1438,0.1447,0.1461,0.1474,0.1556,0.1557,0.154,0.1534,0.1532,0.1472,0.1468,0,0,0.1335,0.1352,0.136,0.1379,0.1396,0.1419,0.1441,0.1463,0.1484,0.154,0.1542,0.154,0.1534,0.1532,0.1517,0.1511,0,0,0,0.1343,0.1355,0.136,0.138,0.1409,0.1428,0.1461,0.1478,0.1514,0.15,0.1561,0.1558,0.1557,0.1521,0.1517,0.1561,0.1561,0.156,0.156,0.1336,0.1352,0.1357,0.1385,0.1403,0.1446,0.1465,0.1505,0.1528,0.1542,0.1559,0.1568,0.1531,0.1527,0.1577,0.1577,0.1577,0.1577,0.1577,0.1335,0.1341,0.1356,0.1365,0.1402,0.1435,0.1485,0.1506,0.1555,0.1564,0.1564,0.1525,0.1521,0.1576,0.1576,0.1576,0.1576,0.1576,0.1576,0.1333,0.1333,0.1341,0.1353,0.1379,0.1423,0.1448,0.1501,0.1536,0.155,0.1518,0.1517,0.1546,0.1551,0.1551,0.1551,0.1551,0.1551,0.1551,0.1323,0.1326,0.1316,0.1336,0.134,0.1372,0.143,0.1451,0.1479,0.1502,0.1501,0.156,0.1561,0.1546,0.1551,0.1551,0.1551,0.1551,0.1551,0.1293,0.1301,0.1274,0.1272,0.128,0.1271,0.1343,0.1367,0.1405,0.1405,0.1473,0.1475,0.1474,0.1477,0.1461,0.1444,0.1444,0.1444,0.1444,0.1267,0.1274,0.1211,0.118,0.1182,0.1209,0.1176,0.1196,0.1275,0.1292,0.1298,0.128,0.1288,0.1277,0.1284,0.1264,0.1196,0.1195,0.1195,0.1222,0.1213,0.1146,0.1126,0.112,0.1119,0.1059,0.0991,0.1037,0.1184,0.1243,0.143,0.1421,0.1427,0.1425,0.1431,0.1405,0,0]},{"header":{"parameterUnit":"m.s-1","parameterCategory":2,"la1":30.2992,"la2":30.254,"lo1":-89.0895,"lo2":-89.0443,"dy":0.0025,"dx":0.0025,"nx":19,"ny":19,"refTime":"2026-03-18T03:00:00:Z","depth":"2","parameterNumber":3,"parameterNumberName":"V-component_of_CURRENTS"},"data":[0,0,0,0.0123,0.0121,0.0022,0.0021,-0.0049,-0.0049,0,0,0,0,0,0,0,0,0,0,0,0.0139,0.0138,0.0123,0.0121,0.0022,0.0021,-0.0049,-0.0049,0,0,0,0,0,0,0,0,0,0,0,0.0139,0.0138,0.0137,0.012,0.0022,0.0021,-0.0049,0.001,0,0,0,0,0,0,0,0,0,0,0.0098,0.014,0.0139,0.0137,0.012,0.0022,0.0021,0.0012,0.0006,0.0015,0,-0.0013,0,-0.002,-0.0052,-0.0052,0,0,0,0.0111,0.0144,0.0091,0.0137,0.0119,0.0022,0.0064,0.0008,0.0002,0.0008,-0.0014,-0.0016,-0.0021,-0.0052,-0.0052,-0.0061,-0.0061,0,0,0.0117,0.0151,0.0095,0.0086,0.0078,0.0067,0.0061,0.0003,0.0009,-0.0014,-0.0018,-0.0022,-0.0052,-0.0053,-0.0062,-0.0061,0,0,0,0.0139,0.0155,0.0102,0.0089,0.0073,0.0064,0.0057,0.0011,-0.0016,-0.0019,-0.0023,-0.0052,-0.0053,-0.0062,-0.0062,0.0029,0,0,0,0.0142,0.0168,0.0104,0.0128,0.0074,0.0043,0.0066,-0.0012,-0.0018,-0.0022,-0.0053,-0.0053,-0.0062,-0.0062,0.0026,0.0054,0,0,0,0.0146,0.017,0.0147,0.0129,0.0089,0.0043,0.0014,-0.0014,-0.002,-0.0052,-0.0053,-0.0062,-0.0062,0.0024,0.005,0.0082,0,0,0,0.0201,0.0183,0.0147,0.0147,0.009,0.0068,0.0014,0.0005,-0.0015,-0.0053,-0.0062,-0.0062,0.0023,0.0047,0.0079,0.0109,0.0124,0,0,0.0211,0.0186,0.0188,0.0154,0.0158,0.0082,0.0095,0.0042,-0.0008,-0.0041,-0.0042,0.0027,0.005,0.0081,0.0134,0.0148,0,0,0,0.0215,0.0208,0.021,0.0199,0.0171,0.0157,0.0096,0.0078,0.0041,-0.0019,0.001,0.0021,0.0038,0.005,0.0061,-0.0059,-0.006,-0.006,-0.006,0.0242,0.0235,0.0257,0.0241,0.0238,0.0204,0.0192,0.0143,0.0095,0.0095,0.0083,0.0151,0.0165,0.0173,0.0074,0.0075,0.0075,0.0075,0.0076,0.0267,0.0283,0.0291,0.0306,0.0296,0.0292,0.0268,0.0235,0.0211,0.0159,0.0172,0.013,0.0191,0.0082,0.0081,0.008,0.008,0.0079,0.0079,0.0289,0.0301,0.031,0.0344,0.0366,0.0349,0.0379,0.0336,0.0284,0.0291,0.0273,0.0271,0.0207,0.0292,0.0292,0.0292,0.0293,0.0293,0.0293,0.0309,0.0326,0.0356,0.039,0.0418,0.0449,0.0441,0.0437,0.0405,0.036,0.036,0.0223,0.0216,0.0217,0.0297,0.0297,0.0296,0.0296,0.0295,0.0344,0.0349,0.0401,0.0433,0.0507,0.0573,0.0564,0.0562,0.0536,0.0528,0.0397,0.0393,0.0361,0.0351,0.0354,0.0465,0.0465,0.0465,0.0465,0.0365,0.0371,0.0443,0.0508,0.0585,0.0634,0.0692,0.066,0.0578,0.0517,0.0515,0.0481,0.0473,0.0444,0.0431,0.0434,0.0566,0.0566,0.0566,0.0395,0.0412,0.0464,0.0525,0.062,0.07,0.0751,0.0699,0.0581,0.0568,0.0513,0.0475,0.0417,0.0408,0.035,0.0336,0.0335,0,0]}],[{"header":{"parameterUnit":"m.s-1","parameterCategory":2,"la1":30.2992,"la2":30.254,"lo1":-89.0895,"lo2":-89.0443,"dy":0.0025,"dx":0.0025,"nx":19,"ny":19,"refTime":"2026-03-18T03:00:00:Z","depth":"4","parameterNumber":2,"parameterNumberName":"U-component_of_CURRENTS"},"data":[0,0,0,0.0515,0.0516,0.0588,0.0588,0.0683,0.0684,0,0,0,0,0,0,0,0,0,0,0,0.0505,0.0505,0.0515,0.0516,0.0588,0.0588,0.0683,0.0684,0,0,0,0,0,0,0,0,0,0,0,0.0505,0.0505,0.0506,0.0516,0.0587,0.0588,0.0683,0.0632,0,0,0,0,0,0,0,0,0,0,0.0564,0.0561,0.0505,0.0506,0.0516,0.0587,0.0588,0.063,0.0636,0.0645,0,0.0656,0,0.0657,0.0688,0.0688,0,0,0,0.0535,0.0557,0.0556,0.0506,0.0516,0.0587,0.0561,0.0633,0.0639,0.0652,0.0657,0.066,0.0658,0.0689,0.0689,0.0767,0.0767,0,0,0.0531,0.0538,0.0552,0.056,0.0535,0.0558,0.0563,0.0637,0.0655,0.0657,0.0662,0.066,0.0689,0.069,0.0767,0.0767,0,0,0,0.0507,0.0536,0.0535,0.0556,0.0561,0.056,0.0565,0.0653,0.0646,0.0663,0.0661,0.0689,0.069,0.0766,0.0767,0.084,0,0,0,0.0505,0.0519,0.0533,0.0541,0.0559,0.0609,0.0579,0.0642,0.065,0.066,0.069,0.0691,0.0766,0.0767,0.0837,0.0837,0,0,0,0.0502,0.0519,0.0523,0.054,0.0558,0.0608,0.0608,0.0644,0.0647,0.0688,0.0691,0.0766,0.0767,0.0834,0.0834,0.0882,0,0,0,0.0512,0.0532,0.0524,0.0553,0.0557,0.0605,0.0608,0.067,0.0711,0.069,0.0766,0.0767,0.0833,0.0832,0.0879,0.0737,0,0,0,0.0538,0.0536,0.0551,0.0544,0.0593,0.0596,0.0663,0.0722,0.0722,0.0744,0.0746,0.0838,0.0834,0.0881,0.0786,0,0,0,0,0.0559,0.0569,0.0588,0.0611,0.0637,0.0685,0.0721,0.075,0.0809,0.0744,0.0834,0.0828,0.0856,0.0766,0.0771,0.0771,0.0771,0.0771,0.077,0.0591,0.0597,0.0634,0.0653,0.0695,0.0752,0.0797,0.0832,0.0842,0.0884,0.0886,0.0964,0.0871,0.09,0.09,0.09,0.0901,0.0901,0.0901,0.0613,0.0624,0.0657,0.0697,0.0744,0.0801,0.0872,0.0901,0.0965,0.095,0.0976,0.0846,0.0908,0.0907,0.0906,0.0905,0.0904,0.0904,0.0904,0.0614,0.0622,0.0653,0.0715,0.0786,0.0849,0.0918,0.0977,0.1011,0.1041,0.0961,0.1006,0.1002,0.1081,0.1081,0.1082,0.1082,0.1082,0.1082,0.0601,0.0632,0.0676,0.0743,0.0792,0.0871,0.0967,0.0997,0.1053,0.1002,0.1072,0.1024,0.1018,0.1011,0.1086,0.1085,0.1085,0.1084,0.1084,0.0604,0.063,0.0687,0.0735,0.0821,0.0858,0.0961,0.0977,0.1012,0.0994,0.0981,0.0985,0.0941,0.0937,0.0925,0.0977,0.0976,0.0974,0,0.0608,0.0621,0.0693,0.0744,0.0785,0.0842,0.0842,0.0884,0.0917,0.0883,0.102,0.1006,0.1007,0.0956,0.095,0.0935,0,0,0,0.0623,0.0641,0.0675,0.0716,0.0748,0.0768,0.0833,0.0812,0.0911,0.0887,0.0935,0.0946,0.103,0.1097,0.1038,0.1031,0.1016,0,0]},{"header":{"parameterUnit":"m.s-1","parameterCategory":2,"la1":30.2992,"la2":30.254,"lo1":-89.0895,"lo2":-89.0443,"dy":0.0025,"dx":0.0025,"nx":19,"ny":19,"refTime":"2026-03-18T03:00:00:Z","depth":"4","parameterNumber":3,"parameterNumberName":"V-component_of_CURRENTS"},"data":[0,0,0,0.0548,0.0548,0.0553,0.0553,0.0563,0.0564,0,0,0,0,0,0,0,0,0,0,0,0.0558,0.0559,0.0548,0.0548,0.0553,0.0553,0.0563,0.0564,0,0,0,0,0,0,0,0,0,0,0,0.0558,0.0559,0.056,0.0548,0.0553,0.0553,0.0563,0.0555,0,0,0,0,0,0,0,0,0,0,0.0547,0.0545,0.0559,0.056,0.0549,0.0554,0.0553,0.0554,0.0555,0.0567,0,0.0591,0,0.058,0.0566,0.0566,0,0,0,0.0532,0.0544,0.0565,0.056,0.0549,0.0554,0.0547,0.0554,0.0556,0.0569,0.0591,0.0591,0.0581,0.0566,0.0566,0.0561,0.056,0,0,0.0532,0.0534,0.0565,0.0567,0.0581,0.0547,0.0547,0.0555,0.0558,0.0591,0.0591,0.0581,0.0566,0.0566,0.0561,0.0561,0,0,0,0.0542,0.0534,0.0554,0.0567,0.057,0.0547,0.0547,0.0557,0.0571,0.0591,0.0581,0.0566,0.0567,0.0561,0.0561,0.0559,0,0,0,0.0541,0.0541,0.0554,0.0551,0.057,0.0558,0.055,0.057,0.0571,0.0581,0.0566,0.0567,0.0562,0.0561,0.056,0.0567,0,0,0,0.0553,0.054,0.0556,0.0552,0.0562,0.0558,0.057,0.057,0.0565,0.0566,0.0567,0.0562,0.0561,0.056,0.0567,0.0551,0,0,0,0.0533,0.0541,0.0556,0.0561,0.0563,0.0561,0.0569,0.0559,0.0558,0.0567,0.0562,0.0561,0.056,0.0568,0.0552,0.0555,0,0,0,0.0524,0.054,0.0542,0.0555,0.0559,0.0557,0.0542,0.0547,0.0549,0.0558,0.0557,0.0559,0.0567,0.0551,0.0511,0,0,0,0,0.0525,0.0537,0.0539,0.0551,0.0554,0.0549,0.0546,0.0542,0.0536,0.0549,0.0545,0.055,0.054,0.0543,0.0557,0.0557,0.0557,0.0557,0.0558,0.0519,0.0527,0.0534,0.0549,0.0548,0.054,0.053,0.0524,0.0531,0.052,0.0537,0.0509,0.0511,0.052,0.052,0.052,0.052,0.052,0.052,0.0517,0.0525,0.0541,0.055,0.0556,0.0551,0.0532,0.0525,0.0509,0.0516,0.0506,0.0527,0.0519,0.0519,0.0519,0.0519,0.0519,0.0519,0.0519,0.0518,0.052,0.0537,0.0555,0.0568,0.0564,0.0562,0.0541,0.0513,0.0503,0.0497,0.0504,0.0517,0.0495,0.0495,0.0495,0.0495,0.0495,0.0495,0.0505,0.052,0.0536,0.0561,0.0581,0.0594,0.058,0.0563,0.0528,0.0496,0.0503,0.0501,0.0502,0.0514,0.0494,0.0494,0.0494,0.0494,0.0494,0.0486,0.0501,0.0521,0.0545,0.0594,0.0606,0.0605,0.0559,0.0529,0.0491,0.0484,0.0485,0.0486,0.0487,0.0499,0.0474,0.0473,0.0473,0,0.0471,0.0481,0.0507,0.0543,0.0582,0.0609,0.0585,0.0565,0.0509,0.0499,0.052,0.0514,0.0513,0.0518,0.0519,0.0535,0,0,0,0.0451,0.0466,0.0478,0.0529,0.0578,0.0578,0.0579,0.0554,0.0523,0.0495,0.0473,0.0473,0.0519,0.0492,0.0495,0.0496,0.0516,0,0]}]]